| time (UTC) | temp F | wind direction | speed MPH | gust MPH | rain 1hr in | rain 24hr in | rain mn in | humidity % | barometer mb |
| 20260503183816 | 55 | 265 | 10.0 | 14.0 | 0.00 | 0.00 | 0.00 | 77 | 1010.5 |
| 20260503182313 | 55 | 255 | 13.0 | 16.0 | 0.00 | 0.00 | 0.00 | 78 | 1010.8 |
| 20260503180813 | 53 | 262 | 10.0 | 16.0 | 0.00 | 0.00 | 0.00 | 80 | 1011.2 |
| 20260503175314 | 52 | 230 | 10.0 | 14.0 | 0.00 | 0.00 | 0.00 | 79 | 1011.2 |
| 20260503173813 | 53 | 262 | 12.0 | 17.0 | 0.00 | 0.00 | 0.00 | 78 | 1011.2 |
| 20260503172316 | 52 | 257 | 10.0 | 15.0 | 0.00 | 0.00 | 0.00 | 79 | 1011.5 |
| 20260503170814 | 55 | 239 | 9.0 | 14.0 | 0.00 | 0.00 | 0.00 | 74 | 1011.5 |
| 20260503150814 | 52 | 255 | 14.0 | 16.0 | 0.00 | 0.00 | 0.00 | 75 | 1012.2 |
| 20260503130813 | 49 | 254 | 10.0 | 14.0 | 0.00 | 0.00 | 0.00 | 79 | 1013.2 |
| 20260503110818 | 42 | 253 | 3.0 | 7.0 | 0.00 | 0.00 | 0.00 | 67 | 1013.9 |
| 20260503080814 | 40 | 298 | 3.0 | 5.0 | 0.00 | 0.00 | 0.00 | 71 | 1013.9 |
| 20260503072314 | 41 | 294 | 3.0 | 5.0 | 0.00 | 0.00 | 0.00 | 69 | 1014.2 |
| 20260503070813 | 41 | 288 | 3.0 | 5.0 | 0.00 | 0.00 | 0.00 | 69 | 1014.2 |
| 20260503053813 | 41 | 288 | 2.0 | 5.0 | 0.00 | 0.00 | 0.00 | 64 | 1014.6 |
| 20260503052313 | 41 | 288 | 3.0 | 5.0 | 0.00 | 0.00 | 0.00 | 65 | 1014.9 |
| 20260503050816 | 41 | 294 | 3.0 | 6.0 | 0.00 | 0.00 | 0.00 | 64 | 1014.9 |
| 20260503045314 | 41 | 291 | 3.0 | 5.0 | 0.00 | 0.00 | 0.00 | 64 | 1014.7 |
| 20260503043813 | 41 | 289 | 2.0 | 5.0 | 0.00 | 0.00 | 0.00 | 65 | 1014.9 |
| 20260503042315 | 41 | 291 | 2.0 | 5.0 | 0.00 | 0.00 | 0.00 | 64 | 1015.2 |
| 20260503040813 | 41 | 294 | 2.0 | 3.0 | 0.00 | 0.00 | 0.00 | 65 | 1014.9 |
| 20260503035314 | 41 | 297 | 2.0 | 3.0 | 0.00 | 0.00 | 0.00 | 64 | 1015.2 |
| 20260503033815 | 42 | 279 | 2.0 | 3.0 | 0.00 | 0.00 | 0.00 | 63 | 1015.2 |
| 20260503032313 | 42 | 286 | 2.0 | 2.0 | 0.00 | 0.00 | 0.00 | 70 | 1015.2 |
| 20260503030812 | 43 | 267 | 1.0 | 5.0 | 0.00 | 0.00 | 0.00 | 71 | 1015.6 |
| 20260503025313 | 43 | 258 | 1.0 | 3.0 | 0.00 | 0.00 | 0.00 | 77 | 1015.2 |
| 20260503023813 | 43 | 243 | 2.0 | 7.0 | 0.00 | 0.00 | 0.00 | 78 | 1015.6 |
| 20260503022314 | 44 | 239 | 3.0 | 7.0 | 0.00 | 0.00 | 0.00 | 78 | 1015.6 |
| 20260503020813 | 44 | 235 | 6.0 | 7.0 | 0.00 | 0.00 | 0.00 | 76 | 1015.6 |
| 20260503015314 | 44 | 242 | 5.0 | 7.0 | 0.00 | 0.00 | 0.00 | 83 | 1015.6 |
| 20260503013814 | 44 | 224 | 5.0 | 7.0 | 0.00 | 0.00 | 0.00 | 78 | 1015.2 |
| 20260503012313 | 44 | 217 | 7.0 | 9.0 | 0.00 | 0.00 | 0.00 | 77 | 1015.6 |
| 20260503010813 | 44 | 243 | 6.0 | 8.0 | 0.00 | 0.00 | 0.00 | 78 | 1015.6 |
| 20260503005313 | 44 | 233 | 6.0 | 7.0 | 0.00 | 0.00 | 0.00 | 72 | 1015.2 |
| 20260503003813 | 44 | 233 | 6.0 | 7.0 | 0.00 | 0.00 | 0.00 | 73 | 1015.2 |
| 20260503002318 | 44 | 253 | 3.0 | 5.0 | 0.00 | 0.00 | 0.00 | 70 | 1015.3 |
| 20260503000814 | 44 | 293 | 1.0 | 2.0 | 0.00 | 0.00 | 0.00 | 69 | 1015.2 |
| 20260502235313 | 45 | 303 | 2.0 | 3.0 | 0.00 | 0.00 | 0.00 | 59 | 1015.0 |
| 20260502233814 | 45 | 305 | 1.0 | 2.0 | 0.00 | 0.00 | 0.00 | 59 | 1015.2 |
| 20260502232313 | 46 | 310 | 2.0 | 5.0 | 0.00 | 0.00 | 0.00 | 55 | 1015.2 |
| 20260502230812 | 46 | 337 | 3.0 | 5.0 | 0.00 | 0.00 | 0.00 | 54 | 1014.9 |
| 20260502225313 | 46 | 328 | 5.0 | 6.0 | 0.00 | 0.00 | 0.00 | 55 | 1015.2 |
| 20260502223812 | 46 | 339 | 3.0 | 6.0 | 0.00 | 0.00 | 0.00 | 53 | 1014.9 |
| 20260502222313 | 46 | 334 | 3.0 | 6.0 | 0.00 | 0.00 | 0.00 | 52 | 1015.2 |
| 20260502220814 | 46 | 318 | 5.0 | 7.0 | 0.00 | 0.00 | 0.00 | 53 | 1015.2 |
| 20260502215312 | 46 | 323 | 6.0 | 8.0 | 0.00 | 0.00 | 0.00 | 49 | 1015.2 |
| 20260502213813 | 46 | 347 | 5.0 | 6.0 | 0.00 | 0.00 | 0.00 | 51 | 1014.9 |
| 20260502212313 | 46 | 332 | 7.0 | 9.0 | 0.00 | 0.00 | 0.00 | 52 | 1015.2 |
| 20260502210813 | 46 | 4 | 3.0 | 7.0 | 0.00 | 0.00 | 0.00 | 51 | 1015.2 |
| 20260502205313 | 47 | 354 | 6.0 | 10.0 | 0.00 | 0.00 | 0.00 | 52 | 1014.9 |
| 20260502203812 | 47 | 344 | 5.0 | 7.0 | 0.00 | 0.00 | 0.00 | 54 | 1015.2 |
| 20260502202313 | 46 | 306 | 3.0 | 8.0 | 0.00 | 0.00 | 0.00 | 53 | 1015.6 |
| 20260502200812 | 47 | 318 | 6.0 | 9.0 | 0.00 | 0.00 | 0.00 | 56 | 1015.6 |
| 20260502195314 | 46 | 329 | 6.0 | 9.0 | 0.00 | 0.00 | 0.00 | 56 | 1015.6 |
| 20260502193813 | 47 | 339 | 6.0 | 8.0 | 0.00 | 0.00 | 0.00 | 56 | 1015.8 |
| 20260502192312 | 46 | 2 | 6.0 | 7.0 | 0.00 | 0.00 | 0.00 | 55 | 1015.9 |
| 20260502190812 | 46 | 299 | 3.0 | 6.0 | 0.00 | 0.00 | 0.00 | 62 | 1015.9 |
| 20260502185314 | 45 | 339 | 6.0 | 10.0 | 0.00 | 0.00 | 0.00 | 58 | 1016.3 |